Ubon Ratchathani, Thailand

10:44 PM +07 on April 23, 2018 (GMT +0700)
Ubon Ratchathani

Weather History for VTUU - February, 2012

Change the Weather History Date:

Wednesday, February 8, 2012

  Actual Average Record
Temperature  
Mean Temperature 80 °F -  
Max Temperature 95 °F 93 °F - ()
Min Temperature 66 °F 68 °F - ()
Cooling Degree Days 16    
Growing Degree Days 30 (Base 50)    
Moisture  
Dew Point 69 °F    
Average Humidity 66    
Maximum Humidity 88    
Minimum Humidity 40    
Precipitation  
Precipitation 0.00 in 0.02 in - ()
Sea Level Pressure  
Sea Level Pressure 29.81 in    
Wind  
Wind Speed 2 mph ()    
Max Wind Speed 7 mph    
Max Gust Speed -    
Visibility 4.7 miles    
Events      
T = Trace of Precipitation, MM = Missing Value Source: Averaged Metar Reports

Daily Weather History Graph

Daily Weather History Graph

Search for Another Location

Airport or City:

Astronomy

Feb. 08, 2012 Rise Set
Actual Time 6:28 AM +07 6:01 PM +07
Civil Twilight 6:05 AM +07 6:23 PM +07
Nautical Twilight 5:40 AM +07 6:49 PM +07
Astronomical Twilight 5:14 AM +07 7:14 PM +07
Moon 6:28 PM +07 (2/8) 6:23 AM +07 (2/8)
Length of Visible Light 12h 17m
Length of Day
11h 33m
Full, 100% of the Moon is Illuminated
Feb 8
Full
Feb 15
Last Quarter
Feb 22
New
Mar 1
First Quarter
Mar 8
Full

Hourly Weather History & Observations

Time (+07) Temp. Heat Index Dew Point Humidity Pressure Visibility Wind Dir Wind Speed Gust Speed Precip Events Conditions
12:00 AM 78.8 °F - 69.8 °F 74% 29.77 in 4.3 mi Calm Calm - N/A   Unknown
1:00 AM 79 °F - 70 °F 68% 29.78 in 4 mi Calm Calm - -   Mist
1:00 AM 78.8 °F - 69.8 °F 74% 29.77 in 4.3 mi Calm Calm - N/A   Unknown
2:00 AM 78.8 °F - 69.8 °F 74% 29.77 in 4.3 mi Calm Calm - N/A   Unknown
4:00 AM 73.4 °F - 69.8 °F 88% 29.77 in 5.0 mi NE 4.6 mph - N/A   Unknown
5:00 AM 73.4 °F - 68.0 °F 83% 29.80 in 5.0 mi NE 4.6 mph - N/A   Unknown
7:00 AM 70 °F - 66 °F 82% 29.87 in 5 mi NNE 3.5 mph - -   Mist
7:00 AM 69.8 °F - 66.2 °F 88% 29.86 in 5.0 mi NNE 3.5 mph - N/A   Unknown
8:00 AM 71.6 °F - 66.2 °F 83% 29.86 in 5.6 mi NE 4.6 mph - N/A   Unknown
9:00 AM 77.0 °F - 66.2 °F 69% 29.89 in 5.6 mi NE 3.5 mph - N/A   Unknown
10:00 AM 80.6 °F 83.2 °F 68.0 °F 65% 29.89 in 5.6 mi ESE 3.5 mph - N/A   Unknown
11:00 AM 86.0 °F 90.4 °F 69.8 °F 58% 29.86 in 5.6 mi SSE 2.3 mph - N/A   Mostly Cloudy
12:00 PM 89.6 °F 96.2 °F 71.6 °F 55% 29.83 in 5.0 mi SSE 2.3 mph - N/A   Mostly Cloudy
1:00 PM 92 °F - 71 °F 40% 29.82 in 4 mi East 3.5 mph - -   Haze
1:00 PM 91.4 °F 98.4 °F 71.6 °F 52% 29.80 in 4.3 mi East 3.5 mph - N/A   Mostly Cloudy
2:00 PM 93.2 °F 100.5 °F 71.6 °F 49% 29.77 in 4.3 mi ESE 4.6 mph - N/A   Mostly Cloudy
3:00 PM 93.2 °F 98.8 °F 69.8 °F 46% 29.74 in 4.3 mi East 4.6 mph - N/A   Mostly Cloudy
4:00 PM 93.2 °F 100.5 °F 71.6 °F 49% 29.74 in 5.0 mi East 2.3 mph - N/A   Mostly Cloudy
5:00 PM 91.4 °F 100.1 °F 73.4 °F 55% 29.74 in 5.0 mi SSE 2.3 mph - N/A   Mostly Cloudy
6:00 PM 87.8 °F 95.6 °F 73.4 °F 62% 29.77 in 3.7 mi SE 2.3 mph - N/A   Mostly Cloudy
7:00 PM 87 °F - 74 °F 59% 29.79 in 4 mi NE 2.3 mph - -   Mist
7:00 PM 84.2 °F 89.6 °F 71.6 °F 66% 29.77 in 3.7 mi NE 2.3 mph - N/A   Mostly Cloudy
8:00 PM 84.2 °F 87.3 °F 68.0 °F 58% 29.80 in 4.3 mi NE 6.9 mph - N/A   Mostly Cloudy
9:00 PM 78.8 °F - 66.2 °F 65% 29.83 in 5.0 mi NNE 5.8 mph - N/A   Unknown
10:00 PM 77.0 °F - 66.2 °F 69% 29.86 in 5.6 mi NE 5.8 mph - N/A   Unknown
11:00 PM 75.2 °F - 66.2 °F 73% 29.86 in 5.6 mi NNE 2.3 mph - N/A   Unknown